Location: Bidart
(43.4376°N, 1.5913°W)
Time: 17:56:19
(UTC+00:00)

USA 229 DEB - Pass Details

Date: 19 April 2026
Orbit: 844 x 1364 km, 63.4° (Epoch: 10 January)

Event Time Altitude Azimuth Distance (km) Brightness Sun altitude
Rises 21:42:29 0° 317° (NW) 3,815 7.9 -26.2°
Reaches altitude 10° 21:46:10 10° 337° (NNW) 2,964 6.9 -26.6°
Maximum altitude 21:50:39 17° 17° (NNE) 2,576 6.0 -27.1°
Drops below altitude 10° 21:55:27 10° 56° (NE) 3,203 6.2 -27.7°
Enters shadow 21:59:12 - 73° (ENE) 4,136 6.6 -28.1°
